{"data":{"norad_id":62330,"epoch":"2026-09-22T21:05:04.982496Z","epoch_age_seconds":106438,"freshness":"FRESH","line1":"1 62330U 24240H   26265.87852989  .00000019  00000+0  93088-5 0  9995","line2":"2 62330  86.5016 310.4924 0001383  94.2203 265.9089 13.24414340 85570","mean_motion":13.2441434,"eccentricity":0.0001383,"inclination_deg":86.5016,"raan_deg":310.4924,"arg_perigee_deg":94.2203,"mean_anomaly_deg":265.9089,"bstar":9.3088e-6,"rev_number":8557,"period_min":108.72730357178,"perigee_km":1166.8620826902,"apogee_km":1168.9493181011,"semimajor_km":7546.0427003956,"source":"CELESTRAK","updated_at":"2026-09-23T09:00:21.385692Z"}}